sat.trackr.live / text

‹ back to catalog

TIANMU-1 11

NORAD 58645 · 2023-205A

PAYLOAD ACTIVE UNKNOWN

§ Identity

Operator
Country
PRC
Launch date
2023-12-25
Launch site
JSC
Launch vehicle
Mass (kg)
RCS (m²)

Purposes: earth_obs

External: N2YO · Heavens-Above · Gunter

§ Orbital elements

Epoch: 2026-09-19T23:31:47.959680Z

Period
94.25 min
Inclination
97.3434°
Eccentricity
0.0009618
Mean motion
15.27811679 rev/d
Perigee alt
475.8 km
Apogee alt
489.0 km
Semi-major
6,860.5 km
B*
1.3379e-4
RAAN
283.0949°
Arg perigee
38.9016°
Mean anomaly
321.2914°
Rev number
15,199

§ Raw data

TIANMU-1 111 58645U 23205A   26262.98041620  .00003564  00000+0  13379-3 0  99912 58645  97.3434 283.0949 0009618  38.9016 321.2914 15.27811679151990

JSON: /api/v1/satellites/58645 · /tle

For live sub-satellite position, see the globe view (requires WebGL).

§ Visibility from observer

Set your observer location to see the next 7 days of passes ≥ 10°. The values pass through the URL so the page stays shareable.

No JS? Fill the form by hand. The geolocation button needs JavaScript.